Regional Weather Roundup
Issued by NWS

Home | Current Version | Previous Version | Graphics & Text | Print | Product List | Glossary On
Versions: 1 2 3 4 5 6 7 8 9 10 11 12 13 14 15 16 17 18 19 20 21 22 23 24 25 26 27 28 29 30 31 32 33 34 35 36 37 38 39 40 41 42 43 44 45 46 47 48 49 50
000
ASUS45 KBOI 171610
RWRID
WEATHER ROUNDUP FOR IDAHO
NATIONAL WEATHER SERVICE BOISE ID
1000 AM MDT FRI APR 17 2015

NOTE: "FAIR" INDICATES FEW OR NO CLOUDS BELOW 12000 FEET
WITH NO SIGNIFICANT WEATHER AND/OR OBSTRUCTIONS TO VISIBILITY

IDZ012-014-171700-
SOUTHWEST IDAHO


CITY           SKY/WX    TMP DP  RH WIND       PRES   REMARKS
BOISE          SUNNY     54  31  41 SE8       30.19F
CALDWELL       SUNNY     48  28  46 CALM      30.21F
MOUNTAIN HOME  SUNNY     48  26  42 NE1       30.19S
$$

IDZ016-017-171700-
SOUTHCENTRAL IDAHO


CITY           SKY/WX    TMP DP  RH WIND       PRES   REMARKS
BURLEY         SUNNY     47  26  44 CALM      30.19F
JEROME         SUNNY     49  25  39 VRB3      30.20F
TWIN FALLS     SUNNY     53  24  32 NW7       30.20S
$$

IDZ019>023-171700-
SOUTHEAST IDAHO


CITY           SKY/WX    TMP DP  RH WIND       PRES   REMARKS
IDAHO FALLS    SUNNY     47  31  53 VRB3      30.20F
POCATELLO      SUNNY     44  30  57 SW6       30.21F
REXBURG        SUNNY     42  28  57 CALM      30.19F
$$

IDZ006-010-011-018-031-032-171700-
CENTRAL IDAHO MOUNTAINS


CITY           SKY/WX    TMP DP  RH WIND       PRES   REMARKS
MCCALL         SUNNY     42  30  62 S6        30.18F
HAILEY         SUNNY     48  18  29 NW7       30.21F
STANLEY          N/A     38  19  46 NE3       30.27F
SALMON         SUNNY     41  27  56 CALM      30.26F
CHALLIS        SUNNY     43  19  38 VRB3      30.25F
$$

IDZ002-004-006-007-026-171700-
NORTHERN IDAHO


CITY           SKY/WX    TMP DP  RH WIND       PRES   REMARKS
LEWISTON       SUNNY     50  39  66 E7        30.21F
LOWELL           N/A     44  38  79 CALM      30.27F
COEUR D`ALENE  SUNNY     48  37  66 E8        30.23F
MULLAN PASS    SUNNY     44  26  49 SE6       30.21F
$$


USA.gov is the U.S. government's official web portal to all federal, state and local government web resources and services.